Powrót do katalogu

USA 40 R/B DEB

LostHEO
NORAD 23358·DEBRIS·🇺🇸 United States

Wystrzelony Aug 8, 1989 z Cape Canaveral Space Force Station

Loading…

Następne Przeloty (najbliższe 24 godziny)

TLE

NieaktualneSource: Space-Track

Epoka: Apr 8, 2024, 14:42 UTC

1 23358U 89061AE  24099.61271332  .00014378  00000-0  10845-1 0  9996
2 23358  56.9206 183.1762 3068493 209.4626 129.1854  8.76086948162769

Śledź USA 40 R/B DEB w czasie rzeczywistym z AllMySat

Download on the App Store